Location: Poughquag
(41.6090°N, 73.6820°W)
Time: 06:11:30
(UTC-04:00)

A-11 Canister half - Pass Details

Date: 03 June 2020
Orbit: 1514 x 1686 km, 47.2° (Epoch: 06 July)

Event Time Altitude Azimuth Distance (km) Brightness Sun altitude
Rises 21:06:02 0° 291° (WNW) 4,661 13.2 -7.2°
Reaches altitude 10° 21:10:03 10° 276° (W) 3,672 12.0 -7.8°
Maximum altitude 21:16:14 20° 233° (SW) 2,940 10.7 -8.6°
Drops below altitude 10° 21:22:27 10° 190° (S) 3,689 10.7 -9.5°
Sets 21:26:33 0° 175° (S) 4,689 11.1 -10.1°
